Regional Weather Roundup
Issued by NWS

Home | Current Version | Previous Version | Text Only | Print | Product List | Glossary On
Versions: 1 2 3 4 5 6 7 8 9 10 11 12 13 14 15 16 17 18 19 20 21 22 23 24 25 26 27 28 29 30 31 32 33 34 35 36 37 38 39 40 41 42 43 44 45 46 47 48 49 50
000
ASHW40 PHFO 280112
RWRHI

WEATHER ROUNDUP FOR HAWAII
NATIONAL WEATHER SERVICE HONOLULU HI
300 PM HST THU APR 27 2017

THIS IS AN AUTOMATED REPORT THAT HAS NOT BEEN QUALITY CONTROLLED.

NOTE..."FAIR" INDICATES FEW OR NO CLOUDS BELOW 12,000 FEET WITH NO
SIGNIFICANT WEATHER AND/OR OBSTRUCTIONS TO VISIBILITY.

* - THESE SITES REPORT LIMITED FIELDS

HIZ001>004-280200-
KAUAI-NIIHAU-

CITY           SKY/WX    TMP DP  RH WIND       PRES   REMARKS
LIHUE APT      SUNNY     80  68  66 VRB6      30.01F
PORT ALLEN*      N/A     81 N/A N/A SE7         N/A
POIPU*           N/A     82 N/A N/A S2          N/A
PRINCEVILLE*     N/A     79 N/A N/A E7G13       N/A
KOKOLE POINT*  NOT AVBL
MOLOAA DAIRY*    N/A     81  68  65 E7G15       N/A
WAIMEA HTS*    NOT AVBL
PUU OPAE*      NOT AVBL
PUU LUA*       NOT AVBL
MAKAHA RIDGE*  NOT AVBL
$$

HIZ005>011-280200-
OAHU-

CITY           SKY/WX    TMP DP  RH WIND       PRES   REMARKS
HONOLULU       PTSUNNY   81  66  60 S9        29.99F
KALAELOA       PTSUNNY   82  65  56 W8        30.01F
KANEOHE MCB    NOT AVBL
WHEELER FIELD  SHOWER    73  68  83 N7        30.01F
BELLOWS*       NOT AVBL
KAHUKU*        NOT AVBL
WHEELER*       NOT AVBL
WAIANAE HARBOR NOT AVBL
DILLINGHAM*      N/A     84  72  65 S1G13       N/A
KAHUKU TRN*      N/A     82  75  78 NW1G14      N/A
KAWAILOA*        N/A     72  68  88 N7          N/A
KII*             N/A     79  68  69 E12         N/A
MAKUA RANGE*   NOT AVBL
OAHU FOREST NW NOT AVBL
SCHOFIELD BRK*   N/A     73  66  78 MISG        N/A
SCHOFIELD S*   NOT AVBL
WAIANAE VLY*   NOT AVBL
KUAOKALA*      NOT AVBL
HONOULIUULI*   NOT AVBL
MOKUOLOE IS*   NOT AVBL
PALEHUA*       NOT AVBL
WAIAWA PHB*    NOT AVBL
$$

HIZ012>013-280200-
MOLOKAI-

CITY           SKY/WX    TMP DP  RH WIND       PRES   REMARKS
MOLOKAI AIRPT  MOSUNNY   73  70  90 NE10      30.01F
KALAUPAPA      NOT AVBL
MAKAPULAPAI*   NOT AVBL
MOLOKAI 1*     NOT AVBL
PUU ALII*      NOT AVBL
$$

HIZ016-280200-
KAHOOLAWE-

CITY           SKY/WX    TMP DP  RH WIND       PRES   REMARKS
KAHOOLAWE*     NOT AVBL
HAKIOAWA*      NOT AVBL
HONOKANAIA*      N/A     79  70  73 E3G12     29.96F
KANELOA*         N/A     79  68  69 NE13G21   30.08
KEALIALALO*    NOT AVBL
LUA MAKIKA*    NOT AVBL
$$

HIZ014>015-280200-
LANAI-

CITY           SKY/WX    TMP DP  RH WIND       PRES   REMARKS
LANAI CITY     CLOUDY    76  65  68 W7        30.05F
LANAI 1*       NOT AVBL
$$

HIZ017>028-280200-
MAUI-

CITY           SKY/WX    TMP DP  RH WIND       PRES   REMARKS
KAHULUI        PTSUNNY   79  68  69 N9        30.00F
KAPALUA-W MAUI PTSUNNY   81  66  61 NE12      30.00F
HANA AIRPORT   NOT AVBL
HANA*            N/A     81 N/A N/A E12         N/A
HALEAKALA SUMM   N/A     46  45  93 NE16        N/A
MAALAEA BAY*   NOT AVBL
HALEAKALA*     NOT AVBL
KAUPO GAP*     NOT AVBL
KULA 1*          N/A     58  56  95 W5G13       N/A
$$

HIZ023>026-280200-
BIG ISLAND OF HAWAII COAST AND LOWER SLOPES-

CITY           SKY/WX    TMP DP  RH WIND       PRES   REMARKS
KAILUA KONA    MOSUNNY   84  64  50 S14       29.97F
HILO           CLOUDY    82  65  56 E13       29.99F
HONOKAA*         N/A     72 N/A N/A VRB1        N/A
KAWAIHAE MWT*    N/A     82 N/A N/A W6          N/A
KAWAIHAE*      NOT AVBL
SOUTH POINT*     N/A     79 N/A N/A N10G17      N/A
UPOLU AIRPORT* NOT AVBL
KAMUELA*       MOCLDY    77  63  61 W6        30.09F
HAKALAU*         N/A     62  58  87 SE3G12      N/A
KALOKO-HONOKO* NOT AVBL
PALI 2*          N/A     72  61  68 NW6G18      N/A
KEALAKOMO*       N/A     81  66  61 E7          N/A
KAUPULEHU*     NOT AVBL
KAPAPALA*        N/A     74  64  72 E3G10       N/A
LOWER KAHUKU*  NOT AVBL
PUHE CS*       NOT AVBL
PUHO CS*       NOT AVBL
PTA KEAMUKU*     N/A     64  61  88 CALM        N/A
WAIKOLOA*      NOT AVBL
$$

HIZ027>028-280200-
BIG ISLAND OF HAWAII INTERIOR AND SUMMMITS-

CITY           SKY/WX    TMP DP  RH WIND       PRES   REMARKS
BRADSHAW FIELD PTSUNNY   63  54  71 W10       30.29F
MK VISITOR CEN   N/A     52  45  76 S8          N/A
MAUNA KEA*       N/A     43  19  39 E9          N/A
MAUNA LOA*       N/A    N/A N/A N/A MISG        N/A
MAUNA LOA 1*   NOT AVBL
PTA KIPUKA*      N/A     61  57  88 NW6G13      N/A
PTA RANGE 17*    N/A     59  54  82 NW12        N/A
PTA WEST*        N/A     63  59  88 N7G14       N/A
NENE CABIN*    NOT AVBL
AHUMOA*        NOT AVBL
PTA PORTABLE*  NOT AVBL
PUU MALI*        N/A     55  55 100 NW6G12      N/A
$$

HIC003-280200-
NORTHWEST ISLANDS-

CITY           SKY/WX    TMP DP  RH WIND       PRES   REMARKS
MIDWAY ISLAND    N/A     68  48  49 NE12      30.39S
MIDWAY NOS*    NOT AVBL
FRENCH FRIGATE NOT AVBL
$$

PHZ110>124-180-280200-
BUOY REPORTS

STATION/POSITION TIME  TEMP    WIND        PRES    WAVE   SWELL
                       AIR SEA DIR/SP/G            HT/PER HT/DIR
                 (UTC) (F)     (DEG/KT/KT) (MB)    (FT/S) (FT/D)
BUOY 51001       0040   73 78  150/  2/  4 1017.1F
BUOY 51101       2350   74 78   90/  8/ 10 1017.9    6/ 9   5/290
BUOY 51100       NOT AVBL
BUOY 51002       0040   78 79   60/ 14/ 17 1014.4F
BUOY 51003       2350   78 80   70/  4/  6 1016.3    6/10   5
BUOY 51004       2350      78   90/ 10/ 12 1015.1    7/ 8   7/100
BARBERS PT BUOY  NOT AVBL
WAIMEA BAY BUOY  0002      78                N/A     3/11   2/310
KAILUA BAY BUOY  0034      79                N/A     4/ 8   2/ 10
LANAI BUOY       0045      80                N/A     3/15   3/200
BARBERS PT 2     NOT AVBL
PAUWELA MAUI     0039      77                N/A     5/12   2/330
HILO             0042      79                N/A     5/ 8   2/340
KANEOHE BAY BUOY 0055      79                N/A     3/ 8   2/350
HANALEI KAUAI    0052      79                N/A     4/11   2/310
KAHULUI HARBOR   0030   72 78  300/  6/  9 1016.3F
HONOLULU HARBOR  0030   80 80  200/  5/ 11 1016.3F
KILO NALU        NOT AVBL
HILO HARBOR      0030   91 78  140/ 12/ 16 1015.3F
MOKUOLOE         0036   81 80  100/  9/ 13 1016.0F
NAWILIWILI       0030   78     150/  6/  9 1016.1F
WHOTS BUOY       NOT AVBL
BUOY 51028       NOT AVBL
$$

......................KEY........................................
  SKY/WX - SKY CONDITIONS/PRESENT WEATHER
  TMP    - TEMPERATURE IN FAHRENHEIT
  DWPT   - DEWPOINT IN FAHRENHEIT
  RH     - RELATIVE HUMIDITY IN PERCENT
  WIND   - DIRECTION AND SPEED /MPH FOR ISLANDS...KTS FOR BUOYS/
  PRES   - MEAN SEA LEVEL PRESSURE IN INCHES OF HG
  VSB    - VISIBILITY IN MILES
  HX     - HEAT INDEX
  WCI    - WIND CHILL INDEX
  VRB    - VARIABLE WIND DIRECTION
  N/A    - NOT AVAILABLE




USA.gov is the U.S. government's official web portal to all federal, state and local government web resources and services.